TimeCDT,TemperatureF,Dew PointF,Humidity,Sea Level PressureIn,VisibilityMPH,Wind Direction,Wind SpeedMPH,Gust SpeedMPH,PrecipitationIn,Events,Conditions,WindDirDegrees,DateUTC
12:15 AM,68.4,66.2,93,30.21,10.0,South,4.6,-,N/A,,Clear,190,2012-10-12 05:15:00
12:35 AM,69.1,66.0,90,30.21,10.0,South,3.5,-,N/A,,Clear,170,2012-10-12 05:35:00
12:55 AM,67.3,66.4,97,30.21,10.0,South,3.5,-,N/A,,Clear,190,2012-10-12 05:55:00
1:15 AM,66.7,66.7,100,30.21,10.0,Calm,Calm,-,N/A,,Clear,0,2012-10-12 06:15:00
1:35 AM,66.6,66.6,100,30.21,10.0,Calm,Calm,-,N/A,,Clear,0,2012-10-12 06:35:00
1:55 AM,66.4,66.4,100,30.22,10.0,Calm,Calm,-,N/A,,Clear,0,2012-10-12 06:55:00
2:15 AM,65.8,65.8,100,30.21,10.0,South,3.5,-,N/A,,Clear,190,2012-10-12 07:15:00
2:35 AM,66.2,66.2,100,30.21,10.0,South,3.5,-,N/A,,Clear,190,2012-10-12 07:35:00
3:15 AM,66.6,66.6,100,30.21,10.0,South,4.6,-,N/A,,Clear,190,2012-10-12 08:15:00
3:35 AM,65.7,65.7,100,30.20,10.0,South,5.8,-,N/A,,Clear,180,2012-10-12 08:35:00
3:55 AM,66.2,66.2,100,30.20,10.0,South,5.8,-,N/A,,Clear,190,2012-10-12 08:55:00
4:15 AM,65.3,65.3,100,30.20,7.0,South,3.5,-,N/A,,Clear,180,2012-10-12 09:15:00
4:35 AM,64.4,64.4,100,30.20,5.0,Calm,Calm,-,N/A,,Clear,0,2012-10-12 09:35:00
4:55 AM,63.9,63.9,100,30.21,7.0,South,4.6,-,N/A,,Clear,190,2012-10-12 09:55:00
5:15 AM,64.4,64.4,100,30.21,7.0,South,3.5,-,N/A,,Clear,180,2012-10-12 10:15:00
5:55 AM,63.1,63.1,100,30.22,5.0,Calm,Calm,-,N/A,,Clear,0,2012-10-12 10:55:00
6:15 AM,62.8,62.8,100,30.23,5.0,Calm,Calm,-,N/A,,Clear,0,2012-10-12 11:15:00
6:35 AM,61.7,61.7,100,30.23,5.0,Calm,Calm,-,N/A,,Clear,0,2012-10-12 11:35:00
6:55 AM,61.5,61.5,100,30.24,2.5,Calm,Calm,-,N/A,,Clear,0,2012-10-12 11:55:00
7:15 AM,61.2,61.2,100,30.24,3.0,Calm,Calm,-,N/A,,Clear,0,2012-10-12 12:15:00
7:35 AM,61.3,61.3,100,30.25,3.0,Calm,Calm,-,N/A,,Clear,0,2012-10-12 12:35:00
7:55 AM,61.9,61.9,100,30.26,5.0,Calm,Calm,-,N/A,,Clear,0,2012-10-12 12:55:00
8:15 AM,63.5,63.5,100,30.26,5.0,Calm,Calm,-,N/A,,Clear,0,2012-10-12 13:15:00
8:35 AM,67.8,67.8,100,30.26,7.0,SSE,3.5,-,N/A,,Clear,150,2012-10-12 13:35:00
8:55 AM,69.8,65.3,86,30.28,10.0,Calm,Calm,-,N/A,,Clear,0,2012-10-12 13:55:00
9:15 AM,71.6,65.1,80,30.29,10.0,Calm,Calm,-,N/A,,Clear,0,2012-10-12 14:15:00
9:35 AM,72.7,65.5,78,30.29,10.0,Calm,Calm,-,N/A,,Clear,0,2012-10-12 14:35:00
9:55 AM,74.7,66.2,75,30.29,10.0,South,4.6,-,N/A,,Clear,180,2012-10-12 14:55:00
10:15 AM,76.3,66.0,70,30.29,10.0,South,4.6,-,N/A,,Clear,180,2012-10-12 15:15:00
10:35 AM,77.7,63.5,61,30.30,10.0,South,3.5,-,N/A,,Clear,190,2012-10-12 15:35:00
10:55 AM,79.2,62.4,56,30.30,10.0,South,4.6,-,N/A,,Clear,180,2012-10-12 15:55:00
11:15 AM,79.9,63.3,57,30.30,10.0,SSE,5.8,-,N/A,,Clear,150,2012-10-12 16:15:00
11:35 AM,80.4,62.6,54,30.30,10.0,South,6.9,-,N/A,,Clear,170,2012-10-12 16:35:00
11:55 AM,80.8,63.3,55,30.30,10.0,South,6.9,-,N/A,,Clear,170,2012-10-12 16:55:00
12:15 PM,80.4,62.6,54,30.29,10.0,South,5.8,-,N/A,,Clear,190,2012-10-12 17:15:00
12:35 PM,82.0,61.7,50,30.28,10.0,SE,5.8,-,N/A,,Clear,130,2012-10-12 17:35:00
12:55 PM,82.6,61.5,49,30.27,10.0,South,4.6,-,N/A,,Scattered Clouds,180,2012-10-12 17:55:00
1:35 PM,83.7,60.8,46,30.24,10.0,South,8.1,-,N/A,,Scattered Clouds,190,2012-10-12 18:35:00
1:55 PM,83.5,59.5,44,30.24,10.0,SSE,4.6,-,N/A,,Scattered Clouds,150,2012-10-12 18:55:00
2:15 PM,84.2,59.7,43,30.23,10.0,SE,4.6,-,N/A,,Clear,130,2012-10-12 19:15:00
2:35 PM,84.2,60.6,45,30.23,10.0,SSE,9.2,-,N/A,,Clear,160,2012-10-12 19:35:00
2:55 PM,84.2,59.7,43,30.22,10.0,South,8.1,-,N/A,,Clear,170,2012-10-12 19:55:00
3:15 PM,84.2,59.2,43,30.22,10.0,SSE,8.1,-,N/A,,Clear,150,2012-10-12 20:15:00
3:35 PM,84.2,59.5,43,30.22,10.0,SE,6.9,-,N/A,,Clear,140,2012-10-12 20:35:00
3:55 PM,84.2,60.1,44,30.22,10.0,South,6.9,-,N/A,,Clear,190,2012-10-12 20:55:00
4:15 PM,84.6,60.4,44,30.21,10.0,SSE,4.6,-,N/A,,Mostly Cloudy,160,2012-10-12 21:15:00
4:35 PM,82.8,60.3,46,30.21,10.0,SSE,5.8,-,N/A,,Scattered Clouds,150,2012-10-12 21:35:00
5:15 PM,83.3,59.2,44,30.20,10.0,SE,5.8,-,N/A,,Scattered Clouds,130,2012-10-12 22:15:00
5:55 PM,78.4,62.2,57,30.21,10.0,SSE,3.5,-,N/A,,Clear,150,2012-10-12 22:55:00
6:15 PM,73.2,67.1,81,30.21,10.0,Calm,Calm,-,N/A,,Clear,0,2012-10-12 23:15:00
6:35 PM,71.6,66.9,85,30.21,10.0,Calm,Calm,-,N/A,,Clear,0,2012-10-12 23:35:00
6:55 PM,70.0,67.6,92,30.21,10.0,Calm,Calm,-,N/A,,Clear,0,2012-10-12 23:55:00
7:15 PM,69.6,67.3,92,30.22,10.0,Calm,Calm,-,N/A,,Clear,0,2012-10-13 00:15:00
7:35 PM,68.2,68.0,99,30.22,10.0,Calm,Calm,-,N/A,,Clear,0,2012-10-13 00:35:00
7:55 PM,67.5,67.3,99,30.22,10.0,Calm,Calm,-,N/A,,Clear,0,2012-10-13 00:55:00
8:15 PM,68.0,67.8,99,30.22,10.0,South,4.6,-,N/A,,Clear,180,2012-10-13 01:15:00
8:35 PM,68.2,67.5,98,30.22,10.0,Calm,Calm,-,N/A,,Clear,0,2012-10-13 01:35:00
8:55 PM,67.5,67.5,100,30.22,10.0,Calm,Calm,-,N/A,,Clear,0,2012-10-13 01:55:00
9:15 PM,66.6,66.6,100,30.22,7.0,Calm,Calm,-,N/A,,Clear,0,2012-10-13 02:15:00
9:35 PM,65.7,65.7,100,30.22,5.0,Calm,Calm,-,N/A,,Clear,0,2012-10-13 02:35:00
9:55 PM,65.5,65.5,100,30.21,5.0,Calm,Calm,-,N/A,,Clear,0,2012-10-13 02:55:00
10:15 PM,64.8,64.8,100,30.21,5.0,Calm,Calm,-,N/A,,Clear,0,2012-10-13 03:15:00